Regional Weather Roundup
Issued by NWS Northern Indiana

Home | Current Version | Previous Version | Graphics & Text | Print | Product List | Glossary On
Versions: 1 2 3 4 5 6 7 8 9 10 11 12 13 14 15 16 17 18 19 20 21 22 23 24 25 26 27 28 29 30 31 32 33 34 35 36 37 38 39 40 41 42 43 44 45 46 47 48 49 50
000
ASUS43 KIWX 250910
RWRIWX

KIWX WEATHER ROUNDUP
NATIONAL WEATHER SERVICE NORTHERN INDIANA
500 AM EDT TUE APR 25 2017

NOTE: "FAIR" INDICATES FEW OR NO CLOUDS BELOW 12,000 FEET WITH NO
SIGNIFICANT WEATHER AND/OR OBSTRUCTIONS TO VISIBILITY.

* THESE STATIONS ARE NOT UNDER NWS QUALITY CONTROL. THEY ALSO MAY NOT
  REPORT WEATHER SUCH AS PRECIPITATION OR FOG.

INZ001>027-251000-
NORTHERN INDIANA

CITY           SKY/WX    TMP DP  RH WIND       PRES   REMARKS
GARY*          CLEAR     58  44  60 SE8       29.74S
VALPARAISO     CLEAR     49  43  80 NE6       29.76S
MICHIGAN CITY* CLEAR     54  43  66 CALM      29.77S
LAPORTE*       CLEAR     47  42  84 E6        29.77F
KNOX*          CLEAR     52  32  46 SE7       29.76S
SOUTH BEND     CLEAR     50  43  77 E8        29.80S
GOSHEN         CLEAR     51  44  77 SE9       29.79S
MONTICELLO*    CLEAR     55  49  80 SE3       29.76S
LOGANSPORT*    CLEAR     48  46  93 E7        29.78S
ROCHESTER*     CLEAR     55  48  76 SE7       29.79S
WARSAW*        CLEAR     50  45  81 CALM      29.80S
ANGOLA*        CLEAR     52  46  82 SE9       29.82S
FORT WAYNE     MOCLDY    53  47  79 SE7       29.81S
HUNTINGTON*    CLOUDY    54  49  82 SE6       29.80S
PERU/GRISSOM   CLEAR     54  54 100 E8        29.76S
MARION*        CLOUDY    55  52  88 SE7       29.79F

$$
INZ028>050-251000-
CENTRAL INDIANA

CITY           SKY/WX    TMP DP  RH WIND       PRES   REMARKS
LAFAYETTE      CLEAR     52  50  93 E7        29.74F
KOKOMO*        CLEAR     53  50  89 E7        29.78S
MUNCIE*        CLOUDY    59  51  75 SE8       29.79S
INDIANAPOLIS   PTCLDY    57  51  80 SE7       29.77S

$$
MIZ043>046-050>051-056>058-064>065-071>073-077>080-251000-
SOUTHWEST LOWER MICHIGAN

CITY           SKY/WX    TMP DP  RH WIND       PRES   REMARKS
BATTLE CREEK   CLOUDY    53  46  77 E6        29.82S
BENTON HARBOR  CLEAR     54  43  66 SE9       29.77S
COLDWATER*     CLEAR     52  46  82 SE7       29.82S
HILLSDALE*     CLOUDY    52  45  76 SE8       29.83S
HOLLAND        CLEAR     54  44  69 SE10      29.80S
GRAND RAPIDS   CLEAR     51  44  77 E8        29.82S
KALAMAZOO      CLEAR     52  43  71 SE5       29.81S
STURGIS*       PTCLDY    51  46  81 SE8       29.80S
THREE RIVERS*  FAIR      50  44  79 SE5       29.81F

$$
OHZ001>008-015>018-024>025-251000-
NORTHWEST OHIO

CITY           SKY/WX    TMP DP  RH WIND       PRES   REMARKS
WAUSEON*       CLOUDY    52  48  87 NE7       29.84S
DEFIANCE       CLOUDY    50  45  83 E3        29.84R
FINDLAY        MOCLDY    55  45  68 SE3       29.82S
TOLEDO EXPRESS CLOUDY    52  48  86 NE5       29.84S
TOLEDO METCALF CLOUDY    55  48  77 NE3       29.86R
LIMA           CLOUDY    52  47  83 SE6       29.82R

$$
AND FOR LAKE MICHIGAN COASTAL AND OPEN LAKE BUOY OBSERVATIONS

STATION/POSITION TEMP    WIND        PRES    VSBY  WAVE
                 AIR SEA DIR/SP/G                  HT/PER
                 (F)     (DEG/KT/KT) (MB)    (MI)  (FT/S)
CALUMET HARBOR    59     150/  7/ 11 1006.3F
MICHIGAN CITY     57     120/ 11/ 13   N/A
BURNS HARBOR      58     140/ 10/ 17 1007.8
SOUTH LAKE BUOY   46 41  100/ 10/ 12 1008.2          1
4 MI NW BRIDGMAN  54 50  140/ 10/ 14 1008.3          1/ 2

$$
&&



USA.gov is the U.S. government's official web portal to all federal, state and local government web resources and services.